Location: The Saddle
(36.8333°N, 80.3417°W)
Time: 08:56:20
(UTC-05:00)

A-11 Canister half - Pass Details

Date: 18 December 2023
Orbit: 1512 x 1687 km, 47.2° (Epoch: 27 February)

Event Time Altitude Azimuth Distance (km) Brightness Sun altitude
Rises 02:02:14 0° 300° (WNW) 4,758 - -63.8°
Reaches altitude 10° 02:05:19 10° 303° (WNW) 3,796 - -63.3°
Maximum altitude 02:15:00 68° 26° (NNE) 1,735 - -61.5°
Exits shadow 02:23:42 15° 107° (ESE) 3,521 11.1 -59.8°
Drops below altitude 10° 02:25:00 10° 109° (ESE) 3,918 11.4 -59.6°
Sets 02:28:14 0° 112° (ESE) 4,918 12.0 -58.9°
